Weather History for St. Augustine, FL

Change the Weather History Date:

Saturday, March 9, 2013

  Actual Average Record
Temperature  
Mean Temperature 58 °F -  
Max Temperature 66 °F 67 °F 84 °F (1993)
Min Temperature 50 °F 51 °F 37 °F (1989)
Degree Days  
Heating Degree Days 7    
Growing Degree Days 8 (Base 50)    
Moisture  
Dew Point 47 °F    
Average Humidity 62    
Maximum Humidity 81    
Minimum Humidity 50    
Precipitation  
Precipitation 0.00 in - - ()
Sea Level Pressure  
Sea Level Pressure 30.25 in    
Wind  
Wind Speed 10 mph (NE)    
Max Wind Speed 16 mph    
Max Gust Speed -    
Visibility 10 miles    
Events      
Averages and records for this station are not official NWS values.
T = Trace of Precipitation, MM = Missing Value Source: NWS Daily Summary

Daily Weather History Graph

Daily Weather History Graph

Search for Another Location

Airport:

Trip Planner

Search our weather history database for the weather conditions in past years. The results will help you decide how hot, cold, wet, or windy it might be!

Date:

Astronomy

Mar. 09, 2013 Rise Set
Actual Time 6:41 AM EST 6:30 PM EST
Civil Twilight 6:18 AM EST 6:53 PM EST
Nautical Twilight 5:50 AM EST 7:21 PM EST
Astronomical Twilight 5:22 AM EST 7:49 PM EST
Moon 4:57 AM EST (3/9) 4:36 PM EST (3/9)
Length of Visible Light 12h 35m
Length of Day
11h 48m
Waning Crescent, 5% of the Moon is Illuminated
Mar 9
Waning Crescent
Mar 11
New
Mar 19
First Quarter
Mar 27
Full
Apr 3
Last Quarter

Hourly Weather History & Observations

Time (EST) Temp. Dew Point Humidity Pressure Visibility Wind Dir Wind Speed Gust Speed Precip Events Conditions
12:58 AM 50.0 °F 44.1 °F 80% 30.25 in 10.0 mi North 4.6 mph - N/A   Clear
1:58 AM 55.0 °F 45.0 °F 69% 30.22 in 10.0 mi NNE 6.9 mph - N/A   Clear
2:58 AM 53.1 °F 42.1 °F 66% 30.21 in 10.0 mi NNE 6.9 mph - N/A   Clear
3:58 AM 55.9 °F 41.0 °F 57% 30.19 in 10.0 mi NE 11.5 mph - N/A   Clear
4:58 AM 57.0 °F 41.0 °F 55% 30.20 in 10.0 mi NE 12.7 mph - N/A   Clear
5:58 AM 57.0 °F 41.0 °F 55% 30.22 in 10.0 mi NE 12.7 mph - N/A   Clear
6:58 AM 57.9 °F 43.0 °F 58% 30.22 in 10.0 mi NE 12.7 mph - N/A   Clear
7:58 AM 61.0 °F 44.1 °F 54% 30.25 in 10.0 mi ENE 11.5 mph - N/A   Clear
8:58 AM 63.0 °F 45.0 °F 52% 30.27 in 10.0 mi ENE 12.7 mph - N/A   Clear
9:58 AM 64.9 °F 46.0 °F 50% 30.27 in 10.0 mi ENE 12.7 mph - N/A   Clear
10:58 AM 66.0 °F 46.9 °F 50% 30.29 in 10.0 mi NE 12.7 mph - N/A   Clear
11:58 AM 66.0 °F 48.0 °F 52% 30.30 in 10.0 mi NNE 12.7 mph - N/A   Clear
12:58 PM 64.9 °F 48.9 °F 56% 30.27 in 10.0 mi NNE 16.1 mph - N/A   Clear
1:58 PM 64.0 °F 48.0 °F 56% 30.25 in 10.0 mi NNE 16.1 mph - N/A   Clear
2:58 PM 64.0 °F 48.9 °F 58% 30.25 in 10.0 mi NNE 16.1 mph - N/A   Clear
3:58 PM 62.1 °F 50.0 °F 65% 30.25 in 10.0 mi NNE 15.0 mph - N/A   Clear
4:58 PM 62.1 °F 48.9 °F 62% 30.25 in 10.0 mi NE 13.8 mph - N/A   Clear
5:58 PM 61.0 °F 48.9 °F 64% 30.25 in 10.0 mi NE 13.8 mph - N/A   Clear
6:58 PM 60.1 °F 48.0 °F 64% 30.26 in 10.0 mi NE 8.1 mph - N/A   Clear
7:58 PM 60.1 °F 48.0 °F 64% 30.26 in 10.0 mi NE 11.5 mph - N/A   Clear
8:58 PM 59.0 °F 48.9 °F 69% 30.27 in 10.0 mi NE 8.1 mph - N/A   Clear
10:58 PM 59.0 °F 53.1 °F 81% 30.25 in 10.0 mi NE 6.9 mph - N/A   Clear
11:58 PM 59.0 °F 52.0 °F 78% 30.23 in 10.0 mi ENE 6.9 mph - N/A   Clear